Voltar ao catálogo

COSMOS 2251 DEB

AtivoLEO
NORAD 34962·DEBRIS·🇷🇺 Russia

Lançado Jun 16, 1993 de Plesetsk Cosmodrome

Loading…

Próximas Passagens (próximas 24 horas)

TLE

AtualizadoSource: Space-Track

Época: Sep 13, 2026, 19:44 UTC

1 34962U 93036AER 26256.82230194  .00000970  00000-0  27206-3 0  9991
2 34962  74.0299  39.1338 0017580  86.2275 274.0894 14.47278148915572

Acompanhe COSMOS 2251 DEB em tempo real com AllMySat

Download on the App Store